Change the Weather History Date:

Friday, May 23, 2014

  Actual Average Record
Temperature  
Mean Temperature 66 °F 65 °F  
Max Temperature 71 °F 78 °F 104 °F (1939)
Min Temperature 61 °F 52 °F 34 °F (1917)
Cooling Degree Days 2    
Growing Degree Days 16 (Base 50)    
Moisture  
Dew Point 61 °F    
Average Humidity 86    
Maximum Humidity 94    
Minimum Humidity 70    
Precipitation  
Precipitation T in 0.12 in 0.93 in (2005)
Month to date precipitation 0.91 2.78  
Year to date precipitation 4.94 7.50  
Sea Level Pressure  
Sea Level Pressure 30.08 in    
Wind  
Wind Speed 8 mph (East)    
Max Wind Speed 13 mph    
Max Gust Speed -    
Visibility 9 miles    
Events Rain    
T = Trace of Precipitation, MM = Missing Value Source: NWS Daily Summary

Daily Weather History Graph

Daily Weather History Graph

Search for Another Location

Airport or City:

Trip Planner

Search our weather history database for the weather conditions in past years. The results will help you decide how hot, cold, wet, or windy it might be!

Date:

Astronomy

May. 23, 2014 Rise Set
Actual Time 6:19 AM CDT 8:53 PM CDT
Civil Twilight 5:48 AM CDT 9:24 PM CDT
Nautical Twilight 5:09 AM CDT 10:03 PM CDT
Astronomical Twilight 4:26 AM CDT 10:46 PM CDT
Moon 3:12 AM CDT (5/23) 3:49 PM CDT (5/23)
Length of Visible Light 15h 36m
Length of Day
14h 34m
Waning Crescent, 27% of the Moon is Illuminated
May 23
Waning Crescent
May 28
New
Jun 5
First Quarter
Jun 12
Full
Jun 19
Last Quarter

Hourly Weather History & Observations

Time (CDT) Temp. Dew Point Humidity Pressure Visibility Wind Dir Wind Speed Gust Speed Precip Events Conditions
12:53 AM 66.0 °F 60.1 °F 81% 30.09 in 10.0 mi East 12.7 mph - N/A   Mostly Cloudy
1:14 AM 66.0 °F 60.1 °F 81% 30.13 in 10.0 mi East 11.5 mph - N/A   Overcast
1:53 AM 64.9 °F 60.1 °F 84% 30.07 in 10.0 mi ESE 10.4 mph - N/A   Overcast
2:20 AM 64.9 °F 60.1 °F 84% 30.12 in 10.0 mi ESE 9.2 mph - N/A   Overcast
2:49 AM 64.4 °F 60.8 °F 88% 30.14 in 10.0 mi South 6.9 mph - N/A   Overcast
2:53 AM 64.9 °F 60.1 °F 84% 30.08 in 10.0 mi SSE 4.6 mph - N/A   Overcast
3:19 AM 64.0 °F 59.0 °F 84% 30.11 in 10.0 mi East 8.1 mph - N/A   Scattered Clouds
3:53 AM 64.0 °F 60.1 °F 87% 30.04 in 10.0 mi ENE 6.9 mph - N/A   Clear
4:14 AM 63.0 °F 60.1 °F 90% 30.09 in 10.0 mi East 5.8 mph - N/A   Mostly Cloudy
4:53 AM 63.0 °F 60.1 °F 90% 30.04 in 10.0 mi NE 6.9 mph - N/A   Scattered Clouds
5:53 AM 62.1 °F 60.1 °F 93% 30.05 in 9.0 mi ENE 8.1 mph - N/A   Clear
6:11 AM 62.1 °F 60.1 °F 93% 30.10 in 9.0 mi ENE 9.2 mph - N/A   Scattered Clouds
6:26 AM 62.1 °F 59.0 °F 90% 30.09 in 9.0 mi ENE 9.2 mph - N/A   Mostly Cloudy
6:53 AM 62.1 °F 60.1 °F 93% 30.03 in 6.0 mi ENE 10.4 mph - N/A   Scattered Clouds
7:27 AM 62.1 °F 60.1 °F 93% 30.11 in 5.0 mi East 9.2 mph - N/A   Mostly Cloudy
7:53 AM 62.1 °F 60.1 °F 93% 30.07 in 5.0 mi East 9.2 mph - N/A   Overcast
8:27 AM 62.6 °F 60.8 °F 94% 30.13 in 4.0 mi East 6.9 mph - N/A   Overcast
8:53 AM 62.1 °F 60.1 °F 93% 30.09 in 3.0 mi ESE 5.8 mph - 0.00 in Rain Rain
9:53 AM 62.1 °F 60.1 °F 93% 30.11 in 5.0 mi SE 5.8 mph - 0.00 in   Overcast
10:17 AM 62.1 °F 60.1 °F 93% 30.14 in 3.0 mi East 5.8 mph - N/A   Overcast
10:53 AM 63.0 °F 61.0 °F 93% 30.10 in 4.0 mi ENE 5.8 mph - N/A   Overcast
11:53 AM 64.9 °F 61.0 °F 87% 30.10 in 6.0 mi SE 5.8 mph - N/A   Overcast
12:29 PM 66.0 °F 61.0 °F 84% 30.13 in 8.0 mi East 3.5 mph - N/A   Overcast
12:53 PM 66.9 °F 61.0 °F 81% 30.09 in 8.0 mi ESE 4.6 mph - N/A   Overcast
1:14 PM 66.9 °F 61.0 °F 81% 30.13 in 9.0 mi Calm Calm - N/A   Overcast
1:53 PM 66.9 °F 61.0 °F 81% 30.09 in 10.0 mi Calm Calm - N/A   Overcast
2:53 PM 69.1 °F 61.0 °F 75% 30.07 in 10.0 mi ESE 9.2 mph - N/A   Overcast
3:18 PM 70.0 °F 62.1 °F 76% 30.11 in 10.0 mi East 10.4 mph - N/A   Overcast
3:53 PM 71.1 °F 61.0 °F 70% 30.06 in 10.0 mi ESE 11.5 mph - N/A   Mostly Cloudy
4:04 PM 71.1 °F 61.0 °F 70% 30.10 in 10.0 mi ESE 12.7 mph - N/A   Mostly Cloudy
4:53 PM 69.1 °F 60.1 °F 73% 30.05 in 10.0 mi ESE 9.2 mph - N/A   Overcast
5:07 PM 69.1 °F 61.0 °F 75% 30.08 in 10.0 mi ESE 9.2 mph - N/A   Overcast
5:53 PM 66.9 °F 61.0 °F 81% 30.03 in 10.0 mi ESE 8.1 mph - N/A   Mostly Cloudy
6:53 PM 68.0 °F 62.1 °F 81% 30.02 in 10.0 mi East 8.1 mph - 0.00 in Rain Light Rain
7:53 PM 68.0 °F 62.1 °F 81% 30.03 in 10.0 mi East 6.9 mph - 0.00 in   Partly Cloudy
8:16 PM 66.9 °F 62.1 °F 84% 30.06 in 10.0 mi East 6.9 mph - N/A   Mostly Cloudy
8:50 PM 66.2 °F 62.6 °F 88% 30.07 in 10.0 mi East 6.9 mph - N/A   Overcast
8:53 PM 66.0 °F 62.1 °F 87% 30.03 in 10.0 mi ESE 8.1 mph - N/A   Overcast
9:53 PM 64.9 °F 61.0 °F 87% 30.03 in 10.0 mi ESE 8.1 mph - N/A   Overcast
10:20 PM 64.9 °F 62.1 °F 90% 30.07 in 10.0 mi ESE 9.2 mph - N/A   Overcast
10:43 PM 64.0 °F 62.1 °F 93% 30.09 in 10.0 mi ESE 8.1 mph - N/A   Overcast
10:53 PM 64.0 °F 62.1 °F 93% 30.06 in 10.0 mi East 6.9 mph - N/A   Mostly Cloudy
11:49 PM 62.6 °F 60.8 °F 94% 30.10 in 9.0 mi SE 4.6 mph - N/A   Mostly Cloudy